Miscellaneous Local Product
Issued by NWS Hastings, NE

Home | Current Version | Previous Version | Graphics & Text | Print | Product List | Glossary Off
Versions: 1 2 3 4 5 6 7 8 9 10 11 12 13 14 15 16 17 18 19 20 21 22 23 24 25 26 27 28 29 30 31 32 33 34 35 36 37 38 39 40 41 42 43 44 45 46 47 48 49 50

911
AXUS43 KGID 280102
MISGRI

GID CWA HOURLY WEATHER ROUNDUP
NATIONAL WEATHER SERVICE HASTINGS NE
800 PM CDT SUN MAY 27 2018

NOTE: "FAIR" INDICATES FEW OR NO CLOUDS BELOW 12,000 FEET WITH NO
SIGNIFICANT WEATHER AND/OR OBSTRUCTIONS TO VISIBILITY.

...SOUTH CENTRAL NEBRASKA...

CITY           SKY/WX    TMP DP  RH WIND       PRES   REMARKS
GRAND ISLAND   CLOUDY    90  53  28 S15       29.83R
KEARNEY        CLOUDY    86  52  30 S17       29.83R
HASTINGS       CLOUDY    89  54  30 S12       29.85R
ORD            CLOUDY    84  57  39 S7        29.80R
YORK           CLEAR     91  54  27 S14       29.82R
AURORA         CLEAR     90  53  28 S12       29.83R
LEXINGTON      CLOUDY    85  52  31 SE16G23   29.81R
HOLDREGE       CLOUDY    84  54  34 SE18      29.82S
HEBRON         CLEAR     91  54  28 SE13      29.83R

...NEBRASKA PANHANDLE...

CITY           SKY/WX    TMP DP  RH WIND       PRES   REMARKS
CHADRON        CLOUDY    76  62  62 NE13      29.83R
ALLIANCE       CLOUDY    69  52  54 S7        29.83R
SCOTTSBLUFF    CLOUDY    76  62  62 W13       29.82S THUNDER
SIDNEY         LGT RAIN  57  52  83 N13       29.84F

...WESTERN AND NORTH CENTRAL NEBRASKA...

CITY           SKY/WX    TMP DP  RH WIND       PRES   REMARKS
VALENTINE      CLOUDY    84  47  27 SW33G47   29.82R
AINSWORTH      CLOUDY    79  64  59 S8        29.82F
ONEILL         CLOUDY    84  63  49 S5        29.82R
BROKEN BOW     CLOUDY    81  56  42 SE12      29.80F
IMPERIAL         N/A     62  59  90 W36G62    30.00R THUNDER
NORTH PLATTE   CLOUDY    79  59  50 NE10      29.82R
MCCOOK         CLOUDY    86  55  34 SE20G29   29.78R

...EASTERN NEBRASKA...

CITY           SKY/WX    TMP DP  RH WIND       PRES   REMARKS
NORFOLK        CLEAR     87  55  33 S10       29.79R
SO SIOUX CITY  CLOUDY    92  59  33 S8        29.78S HX  91
TEKAMAH        PTCLDY    92  57  30 SW9       29.79S HX  90
COLUMBUS       CLEAR     93  56  28 SE9       29.82R HX  91
ALBION         CLEAR     89  54  29 S9        29.82R
OMAHA EPPLEY   MOCLDY    95  59  30 SW5       29.80S HX  94
OFFUTT AFB     CLEAR     92  60  33 CALM      29.80S HX  92
MILLARD        PTCLDY    94  62  33 S3        29.81R HX  95
LINCOLN        CLEAR     90  60  36 SE9       29.82S
NEBRASKA CITY  MOCLDY    90  62  39 S6        29.82F HX  90
BEATRICE       CLEAR     92  62  37 S12       29.83R HX  92
FALLS CITY     MOCLDY    89  63  41 S8        29.82S HX  90

...NORTHERN KANSAS...

CITY           SKY/WX    TMP DP  RH WIND       PRES   REMARKS
GOODLAND       CLOUDY    80  45  28 SE16G33   29.78R
HILL CITY      CLOUDY    85  58  39 SE12G22   29.82R
NORTON         CLEAR     88  54  31 SE13G18   29.81R
PHILLIPSBURG   CLEAR     84  46  26 SE10      29.81R
SMITH CENTER   CLEAR     84  52  32 SE14G20   29.82R
HAYS           CLOUDY    84  61  45 SE13      29.82R
RUSSELL        CLOUDY    85  56  37 S14       29.81S
CONCORDIA      CLEAR     88  57  34 S15       29.82R
SALINA         CLOUDY    89  60  37 SE13      29.82R
TOPEKA         CLOUDY    89  69  51 S7        29.84R HX  93



USA.gov is the U.S. government's official web portal to all federal, state and local government web resources and services.